Terminal Aerodrome Forecast
Issued by NWS Shreveport, LA

Home | Current Version | Previous Version | Text Only | Print | Product List | Glossary On
Versions: 1 2 3 4 5 6 7 8 9 10 11 12 13 14 15 16 17
000
FTUS44 KSHV 301700
TAFMLU
TAF
KMLU 301740Z 3018/3118 05010KT P6SM SCT250
     FM310000 04003KT P6SM FEW150 BKN250
     FM310600 06004KT P6SM BKN150 BKN250=

USA.gov is the U.S. government's official web portal to all federal, state and local government web resources and services.